Location: Freistadt
(48.5112°N, 14.5013°E)
Time: 16:32:16
(UTC+02:00)

CUBEBUG 2 - Pass Details

Date: 04 April 2023
Orbit: 577 x 685 km, 97.8° (Epoch: 02 June)

Event Time Altitude Azimuth Distance (km) Brightness Sun altitude
Rises 04:44:37 0° 4° (N) 3,066 ? -17.9°
Reaches altitude 10° 04:47:10 10° 352° (N) 2,138 ? -17.5°
Maximum altitude 04:51:02 26° 296° (WNW) 1,320 ? -17.0°
Enters shadow 04:52:00 24° 276° (W) 1,381 ? -16.8°
